W5HKR Weather Reports


Display with metric or nautical units.
time (UTC)temp
F
wind
direction
speed
MPH
gust
MPH
rain 1hr
in
rain 24hr
in
rain mn
in
humidity
%
barometer
mb
20240302011450 61 118 0.0 1.0 0.00 0.00 0.00 64 988.8
20240302010950 62 133 1.0 1.0 0.00 0.00 0.00 64 988.8
20240302010448 62 133 0.0 1.0 0.00 0.00 0.00 64 989.1
20240302010049 62 74 0.0 1.0 0.00 0.00 0.00 63 988.9
20240302005947 62 98 0.0 1.0 0.00 0.00 0.00 63 989.2
20240302005448 63 97 0.0 1.0 0.00 0.00 0.00 62 988.6
20240302004948 63 135 0.0 2.0 0.00 0.00 0.00 61 988.8
20240302004448 64 123 0.0 1.0 0.00 0.00 0.00 60 988.8
20240302004250 64 112 1.0 1.0 0.00 0.00 0.00 60 988.8
20240302003948 64 136 1.0 1.0 0.00 0.00 0.00 60 988.7
20240302002949 65 120 0.0 1.0 0.00 0.00 0.00 58 988.9
20240302002450 65 85 1.0 1.0 0.00 0.00 0.00 57 988.8
20240302001950 65 62 0.0 2.0 0.00 0.00 0.00 57 989.0
20240302001448 66 180 0.0 1.0 0.00 0.00 0.00 57 988.6
20240302000949 66 96 1.0 2.0 0.00 0.00 0.00 56 988.9
20240302000649 66 329 1.0 3.0 0.00 0.00 0.00 56 988.5
20240302000450 66 178 0.0 3.0 0.00 0.00 0.00 56 988.7
20240301235949 67 14 1.0 3.0 0.00 0.00 0.00 56 988.8
20240301235450 67 102 2.0 2.0 0.00 0.00 0.00 56 988.5
20240301234949 67 92 1.0 3.0 0.00 0.00 0.00 55 988.8
20240301234849 67 92 1.0 3.0 0.00 0.00 0.00 55 988.8
20240301234449 67 156 1.0 3.0 0.00 0.00 0.00 56 988.6
20240301233950 68 119 2.0 3.0 0.00 0.00 0.00 54 988.8
20240301233448 68 292 1.0 3.0 0.00 0.00 0.00 54 989.2
20240301233049 68 232 1.0 2.0 0.00 0.00 0.00 55 988.7
20240301232949 68 178 1.0 3.0 0.00 0.00 0.00 55 988.8
20240301232449 68 238 0.0 3.0 0.00 0.00 0.00 55 989.1
20240301231950 68 155 0.0 7.0 0.00 0.00 0.00 54 988.8
20240301231448 68 208 0.0 3.0 0.00 0.00 0.00 55 988.5
20240301231249 68 234 2.0 3.0 0.00 0.00 0.00 54 988.7
20240301230950 68 121 2.0 5.0 0.00 0.00 0.00 55 988.8
20240301230448 69 345 2.0 7.0 0.00 0.00 0.00 54 988.6
20240301225948 69 259 2.0 5.0 0.00 0.00 0.00 53 988.3
20240301225450 69 273 1.0 3.0 0.00 0.00 0.00 53 988.3
20240301224448 70 277 0.0 3.0 0.00 0.00 0.00 53 988.7
20240301223950 70 293 2.0 5.0 0.00 0.00 0.00 52 988.7
20240301223650 70 280 2.0 3.0 0.00 0.00 0.00 53 988.5
20240301223449 70 115 1.0 3.0 0.00 0.00 0.00 51 988.5
20240301222950 71 268 2.0 5.0 0.00 0.00 0.00 50 988.8
20240301222447 70 244 2.0 6.0 0.00 0.00 0.00 51 988.6
20240301221948 71 268 3.0 5.0 0.00 0.00 0.00 49 988.8
20240301221849 71 268 3.0 5.0 0.00 0.00 0.00 49 988.8
20240301220947 70 207 1.0 5.0 0.00 0.00 0.00 51 988.8
20240301220448 71 101 0.0 3.0 0.00 0.00 0.00 50 988.8
20240301220050 71 234 2.0 3.0 0.00 0.00 0.00 51 988.8
20240301215950 70 116 2.0 3.0 0.00 0.00 0.00 52 989.1
20240301215448 71 286 1.0 3.0 0.00 0.00 0.00 51 988.7
20240301214949 71 251 2.0 3.0 0.00 0.00 0.00 50 988.8
20240301214449 71 294 2.0 3.0 0.00 0.00 0.00 49 988.8
20240301214250 71 106 2.0 5.0 0.00 0.00 0.00 49 988.8
20240301213949 72 178 1.0 5.0 0.00 0.00 0.00 49 988.7
20240301213448 71 99 1.0 5.0 0.00 0.00 0.00 51 988.8
20240301212950 71 253 2.0 3.0 0.00 0.00 0.00 50 988.5
20240301212449 71 258 2.0 2.0 0.00 0.00 0.00 52 989.0
20240301211948 71 124 1.0 5.0 0.00 0.00 0.00 50 988.7
20240301211448 71 223 1.0 6.0 0.00 0.00 0.00 53 988.8
20240301210949 70 246 3.0 6.0 0.00 0.00 0.00 54 988.9
20240301210649 69 255 1.0 3.0 0.00 0.00 0.00 53 989.2
20240301210449 69 202 1.0 5.0 0.00 0.00 0.00 55 988.9
20240301205950 71 193 2.0 3.0 0.00 0.00 0.00 52 988.8
20240301205449 69 181 0.0 3.0 0.00 0.00 0.00 53 989.6
20240301204948 69 234 5.0 6.0 0.00 0.00 0.00 55 989.2
20240301204849 68 246 5.0 6.0 0.00 0.00 0.00 55 989.3
20240301204448 68 136 3.0 5.0 0.00 0.00 0.00 55 989.2
20240301203948 67 280 1.0 3.0 0.00 0.00 0.00 58 989.5
20240301203049 69 211 1.0 6.0 0.00 0.00 0.00 55 989.5
20240301202949 69 181 1.0 6.0 0.00 0.00 0.00 54 989.4
20240301202449 69 223 1.0 3.0 0.00 0.00 0.00 57 989.5
20240301201949 68 306 2.0 5.0 0.00 0.00 0.00 57 989.5
20240301201250 68 258 2.0 6.0 0.00 0.00 0.00 58 989.8
20240301200948 67 215 1.0 5.0 0.00 0.00 0.00 60 989.5
20240301200449 67 293 0.0 6.0 0.00 0.00 0.00 60 989.8
20240301195950 67 241 2.0 5.0 0.00 0.00 0.00 60 989.8
20240301195450 67 109 2.0 7.0 0.00 0.00 0.00 60 989.8
20240301194949 66 264 5.0 6.0 0.00 0.00 0.00 60 990.2
20240301194450 67 246 3.0 5.0 0.00 0.00 0.00 59 990.2
20240301193948 66 232 2.0 3.0 0.00 0.00 0.00 63 990.2
20240301193649 65 218 2.0 5.0 0.00 0.00 0.00 64 990.2
20240301192949 65 117 3.0 3.0 0.00 0.00 0.00 64 990.3
20240301192449 63 225 1.0 6.0 0.00 0.00 0.00 67 990.2
20240301191949 64 243 3.0 7.0 0.00 0.00 0.00 66 991.0
20240301191849 63 257 2.0 5.0 0.00 0.00 0.00 67 991.0
20240301191448 64 317 2.0 5.0 0.00 0.00 0.00 67 990.7
20240301190950 62 108 1.0 3.0 0.00 0.00 0.00 69 990.8
20240301190450 62 259 2.0 5.0 0.00 0.00 0.00 69 990.9
20240301190049 62 125 3.0 6.0 0.00 0.00 0.00 69 991.1
20240301185948 61 164 2.0 6.0 0.00 0.00 0.00 70 991.0
20240301185450 59 204 0.0 6.0 0.00 0.00 0.00 72 991.1
20240301184950 61 157 1.0 3.0 0.00 0.00 0.00 69 991.2
20240301184449 62 168 1.0 6.0 0.00 0.00 0.00 70 991.0
20240301184249 62 217 2.0 5.0 0.00 0.00 0.00 68 991.4
20240301183949 62 226 5.0 6.0 0.00 0.00 0.00 69 991.5
20240301183449 61 210 5.0 5.0 0.00 0.00 0.00 70 991.5
20240301182949 63 245 2.0 5.0 0.00 0.00 0.00 69 991.4
20240301182449 61 99 1.0 6.0 0.00 0.00 0.00 69 991.0
20240301181949 61 281 3.0 6.0 0.00 0.00 0.00 71 991.3
20240301181450 60 182 2.0 6.0 0.00 0.00 0.00 71 991.4
20240301180948 61 319 1.0 6.0 0.00 0.00 0.00 72 991.5
20240301180650 60 121 2.0 6.0 0.00 0.00 0.00 73 991.5
20240301180448 60 128 2.0 6.0 0.00 0.00 0.00 74 991.6
20240301175949 60 53 3.0 6.0 0.00 0.00 0.00 72 991.6
20240301175449 60 129 5.0 7.0 0.00 0.00 0.00 71 991.9
20240301174949 61 266 0.0 3.0 0.00 0.00 0.00 71 991.9
20240301174849 61 56 2.0 5.0 0.00 0.00 0.00 71 991.9
20240301174448 61 119 3.0 6.0 0.00 0.00 0.00 70 992.1
20240301173951 60 228 3.0 6.0 0.00 0.00 0.00 72 992.5
20240301173449 61 93 2.0 7.0 0.00 0.00 0.00 72 991.9
20240301173049 60 130 1.0 3.0 0.00 0.00 0.00 71 991.9
20240301172948 60 233 1.0 5.0 0.00 0.00 0.00 71 992.4
20240301172448 59 186 1.0 5.0 0.00 0.00 0.00 71 992.5
20240301171950 59 109 1.0 6.0 0.00 0.00 0.00 72 992.3
20240301171448 59 318 1.0 3.0 0.00 0.00 0.00 72 991.9
20240301171249 59 125 2.0 3.0 0.00 0.00 0.00 73 992.2
20240301170949 58 84 1.0 5.0 0.00 0.00 0.00 75 992.3
20240301170450 57 253 2.0 3.0 0.00 0.00 0.00 76 992.4
20240301165948 58 137 3.0 5.0 0.00 0.00 0.00 75 992.5
20240301165449 57 121 3.0 5.0 0.00 0.00 0.00 77 992.3
20240301164950 57 145 0.0 3.0 0.00 0.00 0.00 78 992.5
20240301164449 57 123 0.0 5.0 0.00 0.00 0.00 78 992.5
20240301163948 55 259 1.0 2.0 0.00 0.00 0.00 80 993.0
20240301163651 55 104 0.0 2.0 0.00 0.00 0.00 80 992.9
20240301163448 54 295 0.0 2.0 0.00 0.00 0.00 82 992.5
20240301162951 54 240 0.0 2.0 0.00 0.00 0.00 82 992.8
20240301162450 53 125 1.0 2.0 0.00 0.00 0.00 84 992.5
20240301161850 53 273 0.0 1.0 0.00 0.00 0.00 85 992.9
20240301161450 53 197 0.0 2.0 0.00 0.00 0.00 86 992.5
20240301160950 52 145 1.0 2.0 0.00 0.00 0.00 87 993.2
20240301160448 52 182 1.0 2.0 0.00 0.00 0.00 86 992.7
20240301160050 52 167 1.0 2.0 0.00 0.00 0.00 86 992.7
20240301155950 52 149 1.0 2.0 0.00 0.00 0.00 85 992.6
20240301155448 52 155 0.0 2.0 0.00 0.00 0.00 86 992.6
20240301154948 51 123 0.0 2.0 0.00 0.00 0.00 88 992.4
20240301154450 51 141 1.0 2.0 0.00 0.00 0.00 88 992.5
20240301154249 50 58 1.0 2.0 0.00 0.00 0.00 88 992.6
20240301153952 50 46 0.0 2.0 0.00 0.00 0.00 89 992.6
20240301153450 50 65 2.0 2.0 0.00 0.00 0.00 90 992.3
20240301152949 50 96 2.0 3.0 0.00 0.00 0.00 90 992.7
20240301152450 49 81 2.0 3.0 0.00 0.00 0.00 90 992.3
20240301151951 49 103 1.0 2.0 0.00 0.00 0.00 91 992.5
20240301151449 49 103 1.0 3.0 0.00 0.00 0.00 92 992.7
20240301150950 49 78 1.0 3.0 0.00 0.00 0.00 92 992.5
20240301150650 48 143 0.0 5.0 0.00 0.00 0.00 92 992.5
20240301150450 48 110 1.0 3.0 0.00 0.00 0.00 93 992.5
20240301145949 48 102 2.0 5.0 0.00 0.00 0.00 93 992.5
20240301145449 48 128 2.0 5.0 0.00 0.00 0.00 93 992.5
20240301144950 48 92 2.0 5.0 0.00 0.00 0.00 94 992.5
20240301144851 48 92 2.0 5.0 0.00 0.00 0.00 94 992.5
20240301144449 47 104 3.0 5.0 0.00 0.00 0.00 94 992.6
20240301143948 47 41 2.0 5.0 0.00 0.00 0.00 94 992.5
20240301143450 47 47 1.0 5.0 0.00 0.00 0.00 94 992.2
20240301143050 47 40 3.0 3.0 0.00 0.00 0.00 94 992.5
20240301142449 47 68 2.0 5.0 0.00 0.00 0.00 93 991.9
20240301141950 47 131 5.0 5.0 0.00 0.00 0.00 93 991.9
20240301141450 47 80 2.0 3.0 0.00 0.00 0.00 93 992.1
20240301141251 47 73 2.0 3.0 0.00 0.00 0.00 93 992.0
20240301135449 47 66 1.0 5.0 0.00 0.00 0.00 92 991.9
20240301134951 46 217 0.0 2.0 0.00 0.00 0.00 92 992.0
20240301134450 46 287 1.0 2.0 0.00 0.00 0.00 92 991.9
20240301133650 46 111 0.0 2.0 0.00 0.00 0.00 92 991.9
20240301133449 46 30 0.0 1.0 0.00 0.00 0.00 91 991.8
20240301132451 46 82 2.0 3.0 0.00 0.00 0.00 91 991.4
20240301131850 46 80 1.0 3.0 0.00 0.00 0.00 91 991.6
20240301131449 46 120 2.0 3.0 0.00 0.00 0.00 91 991.5
20240301130450 46 26 2.0 7.0 0.00 0.00 0.00 91 991.6
20240301130050 46 38 3.0 7.0 0.00 0.00 0.00 91 991.8
20240301125950 46 81 5.0 7.0 0.00 0.00 0.00 91 991.5
20240301125450 46 60 2.0 3.0 0.00 0.00 0.00 91 991.2
20240301124951 46 69 2.0 3.0 0.00 0.00 0.00 91 991.7
20240301124448 46 126 1.0 5.0 0.00 0.00 0.00 91 991.5
20240301124250 46 73 1.0 3.0 0.00 0.00 0.00 91 991.2
20240301123950 46 65 1.0 2.0 0.00 0.00 0.00 91 991.4
20240301123449 46 62 2.0 3.0 0.00 0.00 0.00 91 991.2
20240301122950 46 79 1.0 5.0 0.00 0.00 0.00 91 991.3
20240301122450 46 87 2.0 3.0 0.00 0.00 0.00 92 991.2
20240301121950 46 169 2.0 3.0 0.00 0.00 0.00 92 991.4
20240301121450 46 74 3.0 3.0 0.00 0.00 0.00 92 991.3
20240301120950 46 90 1.0 2.0 0.00 0.00 0.00 92 991.3
20240301120650 46 55 2.0 2.0 0.00 0.00 0.00 92 991.4
20240301120450 46 80 1.0 3.0 0.00 0.00 0.00 92 991.4
20240301115950 46 66 2.0 3.0 0.00 0.00 0.00 92 991.2
20240301115451 46 57 1.0 2.0 0.00 0.00 0.00 92 991.5
20240301114949 45 83 2.0 3.0 0.00 0.00 0.00 92 991.4
20240301114850 45 83 2.0 3.0 0.00 0.00 0.00 92 991.4
20240301114450 45 63 1.0 3.0 0.00 0.00 0.00 92 991.3
20240301113950 45 95 1.0 1.0 0.00 0.00 0.00 93 991.2
20240301113450 45 100 1.0 2.0 0.00 0.00 0.00 93 991.0
20240301113050 45 82 1.0 3.0 0.00 0.00 0.00 93 990.8
20240301112950 45 96 1.0 3.0 0.00 0.00 0.00 93 991.1
20240301112450 45 81 0.0 3.0 0.00 0.00 0.00 93 991.2
20240301111950 45 102 1.0 2.0 0.00 0.00 0.00 93 991.1
20240301111451 45 72 1.0 2.0 0.00 0.00 0.00 93 991.2
20240301111249 45 82 1.0 2.0 0.00 0.00 0.00 93 991.2
20240301110950 45 88 1.0 2.0 0.00 0.00 0.00 93 991.3
20240301110450 45 75 2.0 3.0 0.00 0.00 0.00 93 990.9
20240301105950 45 62 0.0 1.0 0.00 0.00 0.00 93 991.0
20240301105451 45 119 2.0 3.0 0.00 0.00 0.00 93 991.2
20240301104951 45 64 1.0 3.0 0.00 0.00 0.00 93 990.6
20240301104451 45 108 2.0 3.0 0.00 0.00 0.00 93 990.9
20240301103950 45 91 2.0 3.0 0.00 0.00 0.00 93 990.8
20240301103651 45 98 2.0 3.0 0.00 0.00 0.00 93 990.8
20240301103451 45 81 2.0 3.0 0.00 0.00 0.00 94 990.9
20240301102951 45 121 2.0 2.0 0.00 0.00 0.00 94 990.9
20240301102450 45 105 2.0 2.0 0.00 0.00 0.00 94 991.4
20240301101950 45 113 2.0 3.0 0.00 0.00 0.00 94 990.9
20240301101851 45 113 2.0 3.0 0.00 0.00 0.00 94 990.9
20240301101451 45 60 0.0 3.0 0.00 0.00 0.00 94 990.9
20240301100950 45 106 2.0 3.0 0.00 0.00 0.00 94 990.7
20240301100450 45 88 2.0 2.0 0.00 0.00 0.00 94 991.2
20240301100050 45 81 2.0 2.0 0.00 0.00 0.00 94 991.1
20240301095950 45 106 2.0 3.0 0.00 0.00 0.00 94 990.9
20240301095450 45 104 2.0 3.0 0.00 0.00 0.00 94 990.9
20240301094948 45 96 2.0 5.0 0.00 0.00 0.00 94 990.9
20240301094451 45 138 2.0 3.0 0.00 0.00 0.00 94 991.0
20240301094249 45 124 2.0 3.0 0.00 0.00 0.00 94 991.1
20240301093951 45 86 2.0 3.0 0.00 0.00 0.00 94 991.2
20240301093451 45 81 2.0 3.0 0.00 0.00 0.00 94 990.9
20240301092950 45 83 1.0 2.0 0.00 0.00 0.00 94 991.2
20240301092451 45 94 2.0 3.0 0.00 0.00 0.00 94 991.2
20240301091950 45 83 3.0 6.0 0.00 0.00 0.00 94 991.4
20240301091451 45 60 2.0 3.0 0.00 0.00 0.00 95 991.9
20240301090951 45 95 2.0 3.0 0.00 0.00 0.00 95 991.5
20240301090651 45 104 2.0 5.0 0.00 0.00 0.00 95 991.7
20240301090450 45 96 3.0 3.0 0.00 0.00 0.00 95 991.4
20240301085949 45 80 2.0 3.0 0.00 0.00 0.00 95 992.2
20240301085451 45 86 3.0 6.0 0.00 0.00 0.00 95 991.4
20240301084950 45 87 2.0 5.0 0.00 0.00 0.00 95 991.9
20240301084805 45 91 3.0 5.0 0.00 0.00 0.00 95 992.0
20240301084451 45 89 2.0 5.0 0.00 0.00 0.00 95 991.9
20240301083950 45 94 2.0 5.0 0.00 0.00 0.00 95 992.1
20240301083450 45 92 2.0 3.0 0.00 0.00 0.00 95 992.3
20240301083004 45 95 2.0 3.0 0.00 0.00 0.00 95 991.9
20240301082951 45 93 2.0 3.0 0.00 0.00 0.00 95 991.9
20240301082450 45 86 2.0 3.0 0.00 0.00 0.00 96 992.2
20240301081950 45 89 2.0 3.0 0.00 0.00 0.00 96 992.4
20240301081451 45 59 2.0 2.0 0.00 0.00 0.00 96 992.5
20240301081206 45 92 1.0 3.0 0.00 0.00 0.00 96 992.5
20240301080951 45 98 2.0 3.0 0.00 0.00 0.00 96 991.9
20240301080451 45 109 2.0 5.0 0.00 0.00 0.00 96 992.5
20240301075950 44 93 1.0 2.0 0.00 0.00 0.00 96 992.5
20240301075451 45 89 3.0 3.0 0.00 0.00 0.00 96 992.2
20240301075406 45 89 3.0 3.0 0.00 0.00 0.00 96 992.2
20240301074950 44 92 2.0 5.0 0.00 0.00 0.00 96 992.5
20240301074450 45 101 2.0 5.0 0.00 0.00 0.00 96 992.7
20240301073951 45 83 2.0 3.0 0.00 0.00 0.00 96 992.5
20240301073605 44 83 2.0 3.0 0.00 0.00 0.00 96 992.2
20240301073451 44 116 2.0 3.0 0.00 0.00 0.00 95 992.5
20240301072951 44 83 2.0 6.0 0.00 0.00 0.00 95 992.7
20240301072450 45 94 3.0 5.0 0.00 0.00 0.00 95 992.9
20240301071949 44 88 2.0 5.0 0.00 0.00 0.00 95 992.9
20240301071804 44 83 2.0 5.0 0.00 0.00 0.00 95 992.9
20240301071450 44 101 2.0 6.0 0.00 0.00 0.00 95 992.7
20240301070951 45 95 2.0 5.0 0.00 0.00 0.00 94 992.9
20240301070450 45 87 2.0 5.0 0.00 0.00 0.00 94 992.8
20240301070007 45 74 2.0 5.0 0.00 0.00 0.00 94 992.5
20240301065950 45 81 2.0 5.0 0.00 0.00 0.00 94 992.7
20240301065449 45 69 3.0 3.0 0.00 0.00 0.00 93 992.6
20240301064950 45 96 2.0 5.0 0.00 0.00 0.00 93 993.1
20240301064451 45 88 2.0 5.0 0.00 0.00 0.00 92 992.8
20240301064205 45 94 2.0 3.0 0.00 0.00 0.00 92 992.9
20240301063949 45 93 2.0 5.0 0.00 0.00 0.00 92 992.9
20240301063450 45 93 3.0 5.0 0.00 0.00 0.00 92 992.9
20240301062951 45 94 2.0 3.0 0.00 0.00 0.00 92 992.9
20240301062450 45 98 2.0 3.0 0.00 0.00 0.00 93 992.9
20240301062404 45 98 2.0 3.0 0.00 0.00 0.00 93 992.9
20240301061950 45 58 2.0 3.0 0.00 0.00 0.00 92 993.2
20240301061451 45 103 2.0 6.0 0.00 0.00 0.00 92 992.7
20240301060952 45 99 3.0 3.0 0.00 0.00 0.00 92 992.7
20240301060605 45 80 3.0 6.0 0.00 0.00 0.00 92 992.6
20240301060450 45 78 2.0 5.0 0.00 0.00 0.00 92 992.8
20240301055951 45 87 2.0 5.0 0.00 0.00 0.00 92 992.9
20240301055450 45 77 2.0 3.0 0.00 0.00 0.00 91 993.1
20240301054950 45 108 2.0 5.0 0.00 0.00 0.00 91 992.7
20240301054805 45 102 2.0 5.0 0.00 0.00 0.00 91 993.2
20240301054450 45 95 3.0 6.0 0.00 0.00 0.00 91 993.2
20240301053951 45 77 2.0 5.0 0.00 0.00 0.00 92 993.2
20240301053451 45 83 3.0 3.0 0.00 0.00 0.00 92 993.1
20240301053005 45 77 2.0 3.0 0.00 0.00 0.00 92 993.3
20240301052949 45 84 1.0 3.0 0.00 0.00 0.00 92 992.9
20240301052451 44 80 2.0 5.0 0.00 0.00 0.00 92 993.1
20240301051953 44 94 3.0 5.0 0.00 0.00 0.00 92 993.2
20240301051450 44 95 3.0 5.0 0.00 0.00 0.00 92 993.3
20240301051205 44 99 3.0 5.0 0.00 0.00 0.00 92 993.6
20240301050950 44 88 2.0 3.0 0.00 0.00 0.00 92 993.6
20240301050449 44 114 3.0 5.0 0.00 0.00 0.00 92 993.5
20240301045951 45 87 2.0 3.0 0.00 0.00 0.00 92 993.6
20240301045451 44 94 2.0 5.0 0.00 0.00 0.00 91 993.7
20240301045405 44 94 2.0 5.0 0.00 0.00 0.00 91 993.7
20240301044949 45 87 5.0 9.0 0.00 0.00 0.00 90 993.8
20240301044451 45 49 5.0 6.0 0.00 0.00 0.00 90 994.2
20240301043950 45 102 3.0 6.0 0.00 0.00 0.00 89 993.6
20240301043606 45 81 2.0 5.0 0.00 0.00 0.00 89 993.9
20240301043449 45 99 5.0 6.0 0.00 0.00 0.00 89 994.0
20240301042951 45 95 3.0 5.0 0.00 0.00 0.00 90 993.6
20240301042452 45 87 2.0 3.0 0.00 0.00 0.00 90 993.7
20240301041949 45 93 2.0 5.0 0.00 0.00 0.00 90 993.9
20240301041806 45 92 3.0 5.0 0.00 0.00 0.00 89 993.9
20240301041450 45 87 3.0 6.0 0.00 0.00 0.00 89 993.7
20240301040952 45 91 2.0 5.0 0.00 0.00 0.00 89 993.9
20240301040452 45 91 2.0 5.0 0.00 0.00 0.00 89 993.7
20240301040005 45 99 2.0 5.0 0.00 0.00 0.00 89 994.1
20240301035951 45 84 3.0 5.0 0.00 0.00 0.00 89 993.9
20240301035452 45 69 2.0 5.0 0.00 0.00 0.00 89 993.6
20240301034950 45 122 3.0 3.0 0.00 0.00 0.00 89 993.6
20240301034449 45 96 3.0 5.0 0.00 0.00 0.00 89 993.9
20240301034205 45 95 2.0 3.0 0.00 0.00 0.00 89 993.9
20240301033950 45 100 2.0 3.0 0.00 0.00 0.00 89 994.6
20240301033450 45 88 2.0 5.0 0.00 0.00 0.00 89 993.6
20240301032952 45 81 2.0 3.0 0.00 0.00 0.00 89 994.2
20240301032450 45 88 3.0 3.0 0.00 0.00 0.00 89 993.9
20240301032406 45 88 3.0 3.0 0.00 0.00 0.00 89 993.9
20240301031949 45 93 2.0 3.0 0.00 0.00 0.00 89 993.7
20240301031451 45 94 2.0 3.0 0.00 0.00 0.00 89 994.2
20240301030951 45 85 5.0 5.0 0.00 0.00 0.00 89 993.8
20240301030605 45 82 1.0 5.0 0.00 0.00 0.00 89 994.2
20240301030449 45 100 2.0 5.0 0.00 0.00 0.00 89 994.2
20240301025950 45 102 2.0 3.0 0.00 0.00 0.00 89 993.6
20240301025450 45 93 2.0 5.0 0.00 0.00 0.00 89 994.1
20240301024950 45 84 2.0 3.0 0.00 0.00 0.00 89 994.2
20240301024804 45 101 3.0 3.0 0.00 0.00 0.00 89 993.7
20240301024451 45 90 2.0 5.0 0.00 0.00 0.00 90 994.1
20240301023951 45 65 3.0 3.0 0.00 0.00 0.00 90 994.1
20240301023451 45 66 2.0 6.0 0.00 0.00 0.00 89 994.2
20240301023006 45 95 3.0 5.0 0.00 0.00 0.00 89 994.0
20240301022952 45 99 3.0 5.0 0.00 0.00 0.00 89 994.1
20240301022450 45 110 2.0 3.0 0.00 0.00 0.00 89 994.0
20240301021949 45 87 2.0 5.0 0.00 0.00 0.00 89 993.6
20240301021452 45 98 3.0 5.0 0.00 0.00 0.00 90 993.8
20240301021205 45 106 2.0 5.0 0.00 0.00 0.00 89 994.0
20240301020951 45 86 5.0 5.0 0.00 0.00 0.00 89 993.6
20240301020451 45 54 2.0 3.0 0.00 0.00 0.00 89 994.2
20240301015951 45 87 2.0 5.0 0.00 0.00 0.00 90 993.6
20240301015450 45 105 2.0 5.0 0.00 0.00 0.00 89 993.9
20240301015404 45 105 2.0 5.0 0.00 0.00 0.00 89 993.9
20240301014950 45 79 5.0 5.0 0.00 0.00 0.00 89 993.3
20240301014450 45 79 3.0 5.0 0.00 0.00 0.00 89 993.3
20240301013951 45 85 2.0 5.0 0.00 0.00 0.00 90 993.6
20240301013605 45 101 2.0 5.0 0.00 0.00 0.00 89 993.9
20240301013451 45 110 2.0 5.0 0.00 0.00 0.00 89 993.6
20240301012952 45 74 1.0 5.0 0.00 0.00 0.00 89 993.9
20240301012451 45 96 2.0 6.0 0.00 0.00 0.00 89 993.7
20240301011950 45 103 3.0 3.0 0.00 0.00 0.00 89 993.3
20240301011806 45 92 2.0 3.0 0.00 0.00 0.00 89 993.6